Regional Weather Roundup
Issued by NWS

Home | Current Version | Previous Version | Text Only | Print | Product List | Glossary On
Versions: 1 2 3 4 5 6 7 8 9 10 11 12 13 14 15 16 17 18 19 20 21 22 23 24 25 26 27 28 29 30 31 32 33 34 35 36 37 38 39 40 41 42 43 44 45 46 47 48 49 50
230
ASUS43 KMPX 270210
RWRMN
WEATHER ROUNDUP FOR MINNESOTA
NATIONAL WEATHER SERVICE TWIN CITIES/CHANHASSEN MN
900 PM CDT THU MAY 26 2016


NOTE: "FAIR" INDICATES FEW OR NO CLOUDS BELOW 12,000 FEET WITH NO
SIGNIFICANT WEATHER AND/OR OBSTRUCTIONS TO VISIBILITY. N/A MEANS
CURRENT SKY AND/OR WEATHER CONDITIONS ARE NOT AVAILABLE.

MNZ060>063-068>070-270300-
   Twin Cities Metro

CITY           SKY/WX    TMP DP  RH WIND       PRES   REMARKS
TWIN CITIES    CLOUDY    77  50  38 S5        29.83S
ST PAUL        CLOUDY    69  58  67 S6        29.83S
CRYSTAL        CLOUDY    72  51  47 S3        29.81F
BLAINE         CLOUDY    70  54  56 CALM      29.82F
EDEN PRAIRIE   CLOUDY    74  53  48 S6        29.82F
SOUTH ST PAUL  CLOUDY    74  54  49 CALM      29.84R
LAKE ELMO      FAIR      70  55  60 CALM      29.85R
$$
MNZ001>005-007-008-013>017-022>024-027-028-270300-
   Northwest Minnesota

CITY           SKY/WX    TMP DP  RH WIND       PRES   REMARKS
BEMIDJI        CLEAR     64  52  63 S6        29.82R
HALLOCK        CLEAR     61  55  82 NW12      29.72R
ROSEAU         CLEAR     64  55  72 SW7       29.73R
WARROAD        CLEAR     64  55  72 SW7       29.74R
THIEF RVR FALL CLEAR     64  54  68 SW7       29.80R
CROOKSTON      PTCLDY    64  55  72 W5        29.79R
FOSSTON        CLEAR     63  54  72 SW5       29.80R
DETROIT LAKES  CLOUDY    66  54  63 SE5       29.82F
MOORHEAD       PTCLDY    72  55  56 E5        29.78F
PARK RAPIDS    CLEAR     68  52  56 S3        29.82R
MAHNOMEN       FAIR      67  55  66 S3        29.80R
$$
MNZ006-009>011-018-025>026-270300-
   North Central Minnesota

CITY           SKY/WX    TMP DP  RH WIND       PRES   REMARKS
BAUDETTE       PTCLDY    64  52  64 S7        29.75R
FLAG ISLAND    MOCLDY    64  55  72 S5        29.70R HAZE
INTL FALLS     CLEAR     65  53  65 SW7       29.76R
WASKISH        CLEAR     64  55  72 S3        29.78R
BIG FORK       CLEAR     63  52  67 SW6       29.81R
LONGVILLE      CLEAR     66  52  59 SW3       29.84R
GRAND RAPIDS   CLEAR     67  51  56 S6        29.84R
CRANE LAKE     CLEAR     57  57 100 CALM      29.79R
ORR            PTCLDY    63  55  77 CALM      29.77R
COOK           MOCLDY    70  55  60 CALM      29.80R
WALKER         FAIR      65  51  59 CALM      29.82S
$$
MNZ012-019>021-037-270300-
   Northeast Minnesota

CITY           SKY/WX    TMP DP  RH WIND       PRES   REMARKS
DULUTH         PTCLDY    52  49  89 CALM      29.84R
ELY            MOCLDY    66  52  59 S5        29.80R
HIBBING        PTCLDY    66  51  58 SW3       29.81R
EVELETH        PTCLDY    66  54  63 S8        29.82R
DULUTH HARBOR  FOG       46  45  93 N5        29.85S VSB<1/4
TWO HARBORS    CLOUDY    54  48  82 CALM      29.83R HAZE
SILVER BAY     CLOUDY    52  52 100 CALM      29.83R VSB 1/4
GRAND MARAIS     N/A     47  45  93 CALM      29.84R
G MARAIS ARPRT FOG       50  46  87 CALM      29.86R VSB 1/4
$$
MNZ029>031-032-039>041-046>048-054>057-064-270300-
   West Central Minnesota

CITY           SKY/WX    TMP DP  RH WIND       PRES   REMARKS
FERGUS FALLS   CLOUDY    72  48  43 CALM      29.75F
WHEATON        CLOUDY    73  52  46 S8        29.79F
MORRIS         CLOUDY    72  48  43 SW5       29.79F
ALEXANDRIA     MOCLDY    69  49  48 CALM      29.82F
ELBOW LAKE     FAIR      69  51  53 SE5       29.80F
WADENA         PTCLDY    64  54  68 E5        29.82F
GLENWOOD       CLOUDY    72  52  49 CALM      29.83F
APPLETON       MOCLDY    72  57  60 CALM      29.79F
BENSON         CLOUDY    70  48  46 CALM      29.81F
ORTONVILLE     CLOUDY    72  48  43 CALM      29.79F
MADISON        CLOUDY    72  48  43 CALM      29.79F
WILLMAR        FAIR      73  48  40 NW3       29.82S
$$
MNZ033>034-036-042>043-049>051-058-059-270300-
   Central Minnesota

CITY           SKY/WX    TMP DP  RH WIND       PRES   REMARKS
ST CLOUD       CLOUDY    68  56  65 NE3       29.82F
SAUK CENTRE    FAIR      67  52  57 NE3       29.82F
PAYNESVILLE    CLOUDY    69  53  57 CALM      29.82F
AITKIN         CLEAR     66  48  52 CALM      29.82F
PINE RIVER     CLEAR     64  54  68 CALM      29.87S
BRAINERD       CLOUDY    64  52  64 CALM      29.84R
STAPLES        CLOUDY    68  50  52 CALM      29.83S
LONG PRAIRIE   MOCLDY    68  55  64 CALM      29.83F
LITTLE FALLS   CLOUDY    63  54  72 CALM      29.83F
LITCHFIELD     MOCLDY    72  54  53 CALM      29.82F
BUFFALO        CLOUDY    71  53  53 SE3       29.83F
MAPLE LAKE     CLOUDY    70  58  66 CALM      29.83F
HUTCHINSON     CLEAR     73  57  57 CALM      29.82F
$$
MNZ037-044-045-052-053-270300-
   East Central Minnesota

CITY           SKY/WX    TMP DP  RH WIND       PRES   REMARKS
PRINCETON      MOCLDY    70  54  56 CALM      29.83S
MORA           CLOUDY    66  50  55 CALM      29.85F
CAMBRIDGE        N/A     72  55  56 CALM      29.82S
RUSH CITY      CLOUDY    65  54  67 CALM      29.83F
MOOSE LAKE     CLOUDY    63  46  55 CALM      29.81S
HINCKLEY       FAIR      68  52  56 W3        29.83S
CLOQUET        CLEAR     54  50  87 CALM      29.84R
MCGREGOR       CLEAR     68  48  49 W3        29.84S
$$
MNZ071>073-080-081-089-090-097-098-270300-
   Southwest Minnesota

CITY           SKY/WX    TMP DP  RH WIND       PRES   REMARKS
MONTEVIDEO     MOCLDY    72  46  40 CALM      29.81F
GRANITE FALLS  CLOUDY    74  51  44 SW6       29.81F
CANBY          CLOUDY    73  55  53 CALM      29.80F
MARSHALL       CLOUDY    73  51  46 S5        29.81F
REDWOOD FALLS  CLOUDY    73  52  47 S7        29.79F
OLIVIA         CLOUDY    64  45  48 SW3       29.80F
PIPESTONE      CLOUDY    70  52  52 CALM      29.80F
WINDOM         CLOUDY    70  54  56 CALM      29.82F
WORTHINGTON    CLOUDY    68  60  75 CALM      29.83F
JACKSON        CLOUDY    68  59  73 E5        29.82F
TRACY          CLOUDY    71  52  51 CALM      29.82F
SLAYTON        CLOUDY    69  53  57 SE7       29.82F
$$
MNZ065>067-074>077-082>085-091>093-270300-
   South Central Minnesota

CITY           SKY/WX    TMP DP  RH WIND       PRES   REMARKS
MANKATO        CLOUDY    72  55  56 NE7       29.81F
NEW ULM        CLOUDY    70  57  64 SE3       29.80F
ST JAMES       CLOUDY    66  55  68 E5        29.81F
FAIRMONT       CLOUDY    72  55  56 NE7       29.80F
GLENCOE        CLOUDY    73  59  60 CALM      29.82F
FARIBAULT      CLOUDY    70  61  73 CALM      29.85F
OWATONNA       CLOUDY    70  55  60 N3        29.84F
WASECA         CLOUDY    68  55  64 NE6       29.83F
ALBERT LEA     CLOUDY    70  61  73 CALM      29.84F
$$
MNZ078>079-086>088-094>096-270300-
   Southeast Minnesota

CITY           SKY/WX    TMP DP  RH WIND       PRES   REMARKS
ROCHESTER      CLOUDY    68  60  75 NE3       29.85F
RED WING       CLOUDY    70  61  73 NE3       29.84R
STANTON        CLOUDY    73  54  51 CALM      29.83F
DODGE CENTER   MOCLDY    66  57  72 E3        29.85F
WINONA         CLOUDY    70  63  78 CALM      29.85S
AUSTIN         CLOUDY    66  57  72 CALM      29.84F
PRESTON        CLOUDY    68  60  74 CALM      29.86F
$$
ABBREVIATIONS USED IN REMARKS
   TC - TEMPERATURES IN CELSIUS
  WCI - WIND CHILL INDEX
   HX - HEAT INDEX
  VSB - VISIBILITY
$$




USA.gov is the U.S. government's official web portal to all federal, state and local government web resources and services.